Tabellarische Ansicht des 29.4.2013


Die einzelnen Werte des Tages

Uhrzeit Temperatur Luftdruck Luftfeuchte Wind Hi-Wind Taupunkt THW Index Wind Chill Heat Index Solar- strahlung Regen

00:00

9.4 C

1011.4 hpa

75 %

6.4 km/h aus 109

11.3 km/h aus SSE

5.2 C

8.6 C

8.7 C

9.3 C

0 W/m

0.00 mm

00:05

9.4 C

1011.4 hpa

75 %

6.4 km/h aus 103

11.3 km/h aus S

5.2 C

8.6 C

8.7 C

9.3 C

0 W/m

0.00 mm

00:10

9.4 C

1011.4 hpa

75 %

8.0 km/h aus 108

14.5 km/h aus SSW

5.2 C

8.2 C

8.3 C

9.3 C

0 W/m

0.00 mm

00:15

9.5 C

1011.7 hpa

74 %

11.3 km/h aus 108

17.7 km/h aus SSW

5.1 C

7.7 C

7.8 C

9.3 C

0 W/m

0.00 mm

00:20

9.6 C

1011.7 hpa

73 %

9.7 km/h aus 108

19.3 km/h aus SSW

5.0 C

8.0 C

8.2 C

9.4 C

0 W/m

0.00 mm

00:25

9.7 C

1011.7 hpa

72 %

12.9 km/h aus 102

22.5 km/h aus S

4.9 C

7.5 C

7.7 C

9.5 C

0 W/m

0.00 mm

00:30

9.8 C

1011.6 hpa

72 %

11.3 km/h aus 111

17.7 km/h aus S

5.0 C

8.0 C

8.2 C

9.6 C

0 W/m

0.00 mm

00:35

9.8 C

1011.6 hpa

72 %

12.9 km/h aus 111

19.3 km/h aus S

5.0 C

7.7 C

7.8 C

9.7 C

0 W/m

0.00 mm

00:40

9.9 C

1011.6 hpa

72 %

12.9 km/h aus 107

22.5 km/h aus S

5.1 C

7.8 C

7.9 C

9.7 C

0 W/m

0.00 mm

00:45

9.9 C

1011.7 hpa

72 %

11.3 km/h aus 108

20.9 km/h aus S

5.1 C

8.2 C

8.4 C

9.8 C

0 W/m

0.00 mm

00:50

9.9 C

1011.7 hpa

71 %

6.4 km/h aus 105

19.3 km/h aus S

4.9 C

9.1 C

9.3 C

9.7 C

0 W/m

0.00 mm

00:55

10.0 C

1011.7 hpa

71 %

12.9 km/h aus 100

20.9 km/h aus SSW

5.0 C

7.8 C

8.1 C

9.8 C

0 W/m

0.00 mm

01:00

10.1 C

1011.8 hpa

71 %

9.7 km/h aus 107

17.7 km/h aus S

5.0 C

8.6 C

8.8 C

9.8 C

0 W/m

0.00 mm

01:05

10.1 C

1011.8 hpa

72 %

6.4 km/h aus 110

17.7 km/h aus S

5.2 C

9.3 C

9.4 C

9.9 C

0 W/m

0.00 mm

01:10

10.1 C

1011.8 hpa

72 %

11.3 km/h aus 107

19.3 km/h aus SSW

5.2 C

8.3 C

8.5 C

9.9 C

0 W/m

0.00 mm

01:15

10.1 C

1011.6 hpa

72 %

11.3 km/h aus 105

17.7 km/h aus SSW

5.2 C

8.3 C

8.5 C

9.9 C

0 W/m

0.00 mm

01:20

10.1 C

1011.6 hpa

72 %

9.7 km/h aus 104

16.1 km/h aus S

5.2 C

8.6 C

8.8 C

9.9 C

0 W/m

0.00 mm

01:25

10.1 C

1011.6 hpa

72 %

9.7 km/h aus 107

16.1 km/h aus S

5.2 C

8.6 C

8.8 C

9.9 C

0 W/m

0.00 mm

01:30

10.1 C

1011.6 hpa

72 %

9.7 km/h aus 108

17.7 km/h aus SSW

5.2 C

8.6 C

8.8 C

9.9 C

0 W/m

0.00 mm

01:35

10.0 C

1011.6 hpa

73 %

9.7 km/h aus 108

16.1 km/h aus S

5.4 C

8.6 C

8.7 C

9.8 C

0 W/m

0.00 mm

01:40

10.0 C

1011.6 hpa

73 %

8.0 km/h aus 102

16.1 km/h aus S

5.4 C

8.8 C

9.0 C

9.8 C

0 W/m

0.00 mm

01:45

9.9 C

1011.3 hpa

73 %

6.4 km/h aus 100

11.3 km/h aus S

5.3 C

9.2 C

9.3 C

9.8 C

0 W/m

0.00 mm

01:50

9.9 C

1011.3 hpa

74 %

9.7 km/h aus 102

16.1 km/h aus S

5.5 C

8.4 C

8.6 C

9.7 C

0 W/m

0.00 mm

01:55

9.8 C

1011.3 hpa

74 %

9.7 km/h aus 103

17.7 km/h aus S

5.4 C

8.3 C

8.5 C

9.7 C

0 W/m

0.00 mm

02:00

9.8 C

1011.3 hpa

74 %

8.0 km/h aus 106

16.1 km/h aus SSW

5.4 C

8.6 C

8.8 C

9.7 C

0 W/m

0.00 mm

02:05

9.8 C

1011.3 hpa

74 %

11.3 km/h aus 107

19.3 km/h aus SW

5.4 C

8.0 C

8.2 C

9.6 C

0 W/m

0.00 mm

02:10

9.8 C

1011.3 hpa

74 %

11.3 km/h aus 104

19.3 km/h aus SSW

5.4 C

8.0 C

8.2 C

9.6 C

0 W/m

0.00 mm

02:15

9.8 C

1011.2 hpa

74 %

11.3 km/h aus 106

19.3 km/h aus SSW

5.4 C

8.0 C

8.2 C

9.6 C

0 W/m

0.00 mm

02:20

9.8 C

1011.2 hpa

74 %

8.0 km/h aus 111

16.1 km/h aus SW

5.4 C

8.6 C

8.7 C

9.6 C

0 W/m

0.00 mm

02:25

9.8 C

1011.2 hpa

74 %

12.9 km/h aus 104

20.9 km/h aus SSW

5.4 C

7.6 C

7.8 C

9.6 C

0 W/m

0.00 mm

02:30

9.8 C

1011.2 hpa

74 %

11.3 km/h aus 101

20.9 km/h aus SW

5.4 C

8.0 C

8.2 C

9.6 C

0 W/m

0.00 mm

02:35

9.8 C

1011.2 hpa

74 %

12.9 km/h aus 109

25.7 km/h aus S

5.4 C

7.6 C

7.8 C

9.6 C

0 W/m

0.00 mm

02:40

9.7 C

1011.2 hpa

74 %

16.1 km/h aus 113

25.7 km/h aus S

5.3 C

6.9 C

7.1 C

9.6 C

0 W/m

0.00 mm

02:45

9.7 C

1011.0 hpa

74 %

16.1 km/h aus 105

24.1 km/h aus S

5.3 C

6.8 C

7.0 C

9.5 C

0 W/m

0.00 mm

02:50

9.7 C

1011.0 hpa

74 %

12.9 km/h aus 104

22.5 km/h aus S

5.3 C

7.5 C

7.7 C

9.5 C

0 W/m

0.00 mm

02:55

9.6 C

1011.0 hpa

74 %

12.9 km/h aus 105

20.9 km/h aus S

5.2 C

7.4 C

7.6 C

9.4 C

0 W/m

0.00 mm

03:00

9.6 C

1010.9 hpa

74 %

17.7 km/h aus 111

25.7 km/h aus SSW

5.2 C

6.5 C

6.7 C

9.4 C

0 W/m

0.00 mm

03:05

9.6 C

1010.9 hpa

74 %

14.5 km/h aus 109

24.1 km/h aus SSW

5.1 C

7.0 C

7.2 C

9.4 C

0 W/m

0.00 mm

03:10

9.6 C

1010.9 hpa

75 %

12.9 km/h aus 103

22.5 km/h aus S

5.3 C

7.3 C

7.5 C

9.4 C

0 W/m

0.00 mm

03:15

9.5 C

1010.9 hpa

75 %

11.3 km/h aus 110

20.9 km/h aus SW

5.3 C

7.7 C

7.8 C

9.3 C

0 W/m

0.00 mm

03:20

9.4 C

1010.9 hpa

75 %

12.9 km/h aus 104

25.7 km/h aus SSW

5.2 C

7.2 C

7.4 C

9.3 C

0 W/m

0.00 mm

03:25

9.4 C

1010.9 hpa

75 %

12.9 km/h aus 100

27.4 km/h aus S

5.2 C

7.2 C

7.3 C

9.2 C

0 W/m

0.00 mm

03:30

9.3 C

1010.9 hpa

75 %

14.5 km/h aus 104

24.1 km/h aus S

5.1 C

6.8 C

6.9 C

9.2 C

0 W/m

0.00 mm

03:35

9.3 C

1010.9 hpa

75 %

12.9 km/h aus 107

24.1 km/h aus S

5.1 C

7.1 C

7.3 C

9.2 C

0 W/m

0.00 mm

03:40

9.3 C

1010.9 hpa

75 %

16.1 km/h aus 110

30.6 km/h aus S

5.1 C

6.4 C

6.6 C

9.1 C

0 W/m

0.00 mm

03:45

9.2 C

1010.9 hpa

76 %

16.1 km/h aus 107

27.4 km/h aus SW

5.2 C

6.3 C

6.5 C

9.1 C

0 W/m

0.00 mm

03:50

9.2 C

1010.9 hpa

76 %

16.1 km/h aus 105

24.1 km/h aus SSW

5.2 C

6.3 C

6.5 C

9.1 C

0 W/m

0.00 mm

03:55

9.2 C

1010.9 hpa

76 %

14.5 km/h aus 105

20.9 km/h aus SSW

5.2 C

6.6 C

6.7 C

9.0 C

0 W/m

0.00 mm

04:00

9.1 C

1010.8 hpa

76 %

12.9 km/h aus 103

20.9 km/h aus SSW

5.1 C

6.8 C

7.0 C

8.9 C

0 W/m

0.00 mm

04:05

9.1 C

1010.8 hpa

76 %

14.5 km/h aus 101

22.5 km/h aus S

5.0 C

6.4 C

6.6 C

8.9 C

0 W/m

0.00 mm

04:10

9.1 C

1010.8 hpa

76 %

14.5 km/h aus 105

24.1 km/h aus SSW

5.0 C

6.4 C

6.6 C

8.9 C

0 W/m

0.00 mm

04:15

9.0 C

1010.6 hpa

76 %

12.9 km/h aus 105

22.5 km/h aus S

5.0 C

6.7 C

6.8 C

8.8 C

0 W/m

0.00 mm

04:20

8.9 C

1010.6 hpa

77 %

17.7 km/h aus 106

25.7 km/h aus S

5.1 C

5.8 C

5.9 C

8.8 C

0 W/m

0.00 mm

04:25

8.9 C

1010.6 hpa

77 %

17.7 km/h aus 101

29.0 km/h aus S

5.1 C

5.7 C

5.8 C

8.8 C

0 W/m

0.00 mm

04:30

8.8 C

1010.4 hpa

77 %

14.5 km/h aus 103

24.1 km/h aus SSW

5.0 C

6.2 C

6.3 C

8.7 C

0 W/m

0.00 mm

04:35

8.8 C

1010.4 hpa

77 %

12.9 km/h aus 105

22.5 km/h aus SSW

5.0 C

6.5 C

6.6 C

8.7 C

0 W/m

0.00 mm

04:40

8.7 C

1010.4 hpa

77 %

14.5 km/h aus 107

25.7 km/h aus S

4.9 C

6.1 C

6.2 C

8.6 C

0 W/m

0.00 mm

04:45

8.7 C

1010.3 hpa

77 %

16.1 km/h aus 106

22.5 km/h aus SSW

4.9 C

5.8 C

5.9 C

8.6 C

0 W/m

0.00 mm

04:50

8.7 C

1010.3 hpa

77 %

12.9 km/h aus 109

19.3 km/h aus SSW

4.9 C

6.3 C

6.4 C

8.6 C

0 W/m

0.00 mm

04:55

8.6 C

1010.3 hpa

77 %

11.3 km/h aus 104

22.5 km/h aus SSW

4.8 C

6.7 C

6.8 C

8.5 C

0 W/m

0.00 mm

05:00

8.6 C

1010.4 hpa

77 %

11.3 km/h aus 96

20.9 km/h aus S

4.8 C

6.7 C

6.8 C

8.5 C

0 W/m

0.00 mm

05:05

8.6 C

1010.4 hpa

77 %

11.3 km/h aus 109

19.3 km/h aus S

4.8 C

6.7 C

6.8 C

8.5 C

0 W/m

0.00 mm

05:10

8.6 C

1010.4 hpa

77 %

9.7 km/h aus 101

16.1 km/h aus S

4.8 C

6.9 C

7.0 C

8.4 C

0 W/m

0.00 mm

05:15

8.6 C

1010.3 hpa

77 %

11.3 km/h aus 108

20.9 km/h aus S

4.8 C

6.6 C

6.7 C

8.4 C

0 W/m

0.00 mm

05:20

8.5 C

1010.3 hpa

77 %

9.7 km/h aus 105

14.5 km/h aus S

4.7 C

6.8 C

6.9 C

8.4 C

0 W/m

0.00 mm

05:25

8.4 C

1010.3 hpa

77 %

11.3 km/h aus 108

16.1 km/h aus S

4.6 C

6.4 C

6.6 C

8.3 C

0 W/m

0.00 mm

05:30

8.4 C

1010.3 hpa

78 %

9.7 km/h aus 107

14.5 km/h aus SSE

4.8 C

6.7 C

6.8 C

8.3 C

0 W/m

0.00 mm

05:35

8.3 C

1010.3 hpa

78 %

11.3 km/h aus 105

17.7 km/h aus S

4.7 C

6.3 C

6.4 C

8.2 C

0 W/m

0.00 mm

05:40

8.1 C

1010.3 hpa

78 %

9.7 km/h aus 95

16.1 km/h aus S

4.5 C

6.3 C

6.4 C

7.9 C

0 W/m

0.00 mm

05:45

7.9 C

1010.3 hpa

78 %

12.9 km/h aus 106

17.7 km/h aus S

4.3 C

5.4 C

5.6 C

7.8 C

0 W/m

0.00 mm

05:50

7.8 C

1010.3 hpa

78 %

11.3 km/h aus 103

14.5 km/h aus SSE

4.2 C

5.6 C

5.8 C

7.6 C

0 W/m

0.00 mm

05:55

7.6 C

1010.3 hpa

79 %

12.9 km/h aus 104

19.3 km/h aus SSE

4.2 C

5.1 C

5.2 C

7.5 C

4 W/m

0.00 mm

06:00

7.4 C

1010.3 hpa

79 %

16.1 km/h aus 116

24.1 km/h aus SSE

4.0 C

4.3 C

4.4 C

7.3 C

6 W/m

0.00 mm

06:05

7.3 C

1010.3 hpa

80 %

14.5 km/h aus 116

22.5 km/h aus S

4.1 C

4.4 C

4.5 C

7.2 C

8 W/m

0.00 mm

06:10

7.2 C

1010.3 hpa

80 %

14.5 km/h aus 116

20.9 km/h aus S

4.0 C

4.3 C

4.4 C

7.1 C

11 W/m

0.00 mm

06:15

7.2 C

1010.5 hpa

81 %

14.5 km/h aus 115

19.3 km/h aus S

4.1 C

4.3 C

4.4 C

7.1 C

14 W/m

0.00 mm

06:20

7.1 C

1010.5 hpa

81 %

14.5 km/h aus 118

22.5 km/h aus S

4.0 C

4.1 C

4.2 C

6.9 C

22 W/m

0.00 mm

06:25

7.0 C

1010.5 hpa

82 %

12.9 km/h aus 116

20.9 km/h aus S

4.1 C

4.4 C

4.5 C

6.9 C

31 W/m

0.00 mm

06:30

7.0 C

1010.6 hpa

82 %

14.5 km/h aus 117

20.9 km/h aus S

4.1 C

4.1 C

4.2 C

6.9 C

43 W/m

0.00 mm

06:35

7.1 C

1010.6 hpa

83 %

14.5 km/h aus 116

19.3 km/h aus S

4.4 C

4.2 C

4.2 C

7.0 C

51 W/m

0.00 mm

06:40

7.1 C

1010.6 hpa

83 %

12.9 km/h aus 116

17.7 km/h aus S

4.4 C

4.6 C

4.7 C

7.1 C

47 W/m

0.00 mm

06:45

7.2 C

1010.8 hpa

83 %

16.1 km/h aus 116

22.5 km/h aus SSE

4.5 C

4.1 C

4.1 C

7.1 C

43 W/m

0.00 mm

06:50

7.2 C

1010.8 hpa

83 %

12.9 km/h aus 117

20.9 km/h aus S

4.5 C

4.7 C

4.7 C

7.1 C

53 W/m

0.00 mm

06:55

7.2 C

1010.8 hpa

84 %

12.9 km/h aus 117

22.5 km/h aus S

4.7 C

4.7 C

4.8 C

7.2 C

68 W/m

0.00 mm

07:00

7.2 C

1010.8 hpa

84 %

12.9 km/h aus 116

20.9 km/h aus S

4.7 C

4.7 C

4.8 C

7.2 C

89 W/m

0.00 mm

07:05

7.3 C

1010.8 hpa

84 %

14.5 km/h aus 116

25.7 km/h aus S

4.8 C

4.4 C

4.5 C

7.2 C

103 W/m

0.00 mm

07:10

7.4 C

1010.8 hpa

83 %

14.5 km/h aus 117

25.7 km/h aus S

4.7 C

4.6 C

4.7 C

7.3 C

113 W/m

0.00 mm

07:15

7.6 C

1010.9 hpa

83 %

14.5 km/h aus 116

24.1 km/h aus SSW

4.9 C

4.8 C

4.8 C

7.5 C

130 W/m

0.00 mm

07:20

7.7 C

1010.9 hpa

82 %

12.9 km/h aus 116

25.7 km/h aus S

4.8 C

5.3 C

5.4 C

7.7 C

143 W/m

0.00 mm

07:25

7.8 C

1010.9 hpa

81 %

14.5 km/h aus 118

30.6 km/h aus SSW

4.8 C

5.1 C

5.2 C

7.7 C

154 W/m

0.00 mm

07:30

8.0 C

1010.9 hpa

81 %

16.1 km/h aus 116

29.0 km/h aus S

4.9 C

4.9 C

5.1 C

7.9 C

169 W/m

0.00 mm

07:35

8.2 C

1010.9 hpa

80 %

17.7 km/h aus 117

29.0 km/h aus SSW

4.9 C

4.9 C

5.0 C

8.1 C

201 W/m

0.00 mm

07:40

8.3 C

1010.9 hpa

79 %

16.1 km/h aus 117

27.4 km/h aus SW

4.8 C

5.3 C

5.4 C

8.2 C

234 W/m

0.00 mm

07:45

8.4 C

1010.9 hpa

79 %

14.5 km/h aus 117

22.5 km/h aus SSW

5.0 C

5.7 C

5.8 C

8.3 C

273 W/m

0.00 mm

07:50

8.6 C

1010.9 hpa

78 %

16.1 km/h aus 117

27.4 km/h aus S

5.0 C

5.7 C

5.8 C

8.5 C

284 W/m

0.00 mm

07:55

8.8 C

1010.9 hpa

78 %

14.5 km/h aus 117

24.1 km/h aus SSW

5.2 C

6.2 C

6.3 C

8.7 C

349 W/m

0.00 mm

08:00

8.9 C

1010.8 hpa

77 %

16.1 km/h aus 116

24.1 km/h aus SSW

5.1 C

6.1 C

6.2 C

8.8 C

370 W/m

0.00 mm

08:05

9.1 C

1010.8 hpa

76 %

14.5 km/h aus 117

25.7 km/h aus SSW

5.0 C

6.4 C

6.6 C

8.9 C

298 W/m

0.00 mm

08:10

9.2 C

1010.8 hpa

76 %

12.9 km/h aus 116

24.1 km/h aus SSW

5.2 C

6.9 C

7.1 C

9.0 C

183 W/m

0.00 mm

08:15

9.2 C

1010.8 hpa

75 %

16.1 km/h aus 116

24.1 km/h aus SSW

5.0 C

6.3 C

6.4 C

9.0 C

170 W/m

0.00 mm

08:20

9.2 C

1010.8 hpa

74 %

17.7 km/h aus 116

30.6 km/h aus SSW

4.8 C

6.0 C

6.2 C

9.0 C

254 W/m

0.00 mm

08:25

9.2 C

1010.8 hpa

74 %

16.1 km/h aus 117

25.7 km/h aus SSW

4.8 C

6.3 C

6.4 C

9.0 C

213 W/m

0.00 mm

08:30

9.2 C

1010.6 hpa

74 %

14.5 km/h aus 118

25.7 km/h aus SW

4.8 C

6.6 C

6.8 C

9.1 C

372 W/m

0.00 mm

08:35

9.3 C

1010.6 hpa

73 %

16.1 km/h aus 117

22.5 km/h aus SSW

4.7 C

6.4 C

6.6 C

9.2 C

377 W/m

0.00 mm

08:40

9.4 C

1010.6 hpa

72 %

16.1 km/h aus 117

29.0 km/h aus SSW

4.6 C

6.5 C

6.7 C

9.2 C

378 W/m

0.00 mm

08:45

9.6 C

1010.8 hpa

71 %

17.7 km/h aus 117

30.6 km/h aus S

4.6 C

6.3 C

6.6 C

9.3 C

392 W/m

0.00 mm

08:50

9.7 C

1010.8 hpa

71 %

14.5 km/h aus 116

25.7 km/h aus S

4.7 C

7.2 C

7.4 C

9.5 C

405 W/m

0.00 mm

08:55

9.8 C

1010.8 hpa

71 %

17.7 km/h aus 117

35.4 km/h aus SSW

4.8 C

6.7 C

6.9 C

9.6 C

416 W/m

0.00 mm

09:00

9.8 C

1010.8 hpa

71 %

20.9 km/h aus 116

32.2 km/h aus SSW

4.8 C

6.2 C

6.4 C

9.6 C

437 W/m

0.00 mm

09:05

9.9 C

1010.8 hpa

70 %

17.7 km/h aus 117

32.2 km/h aus SW

4.7 C

6.8 C

7.1 C

9.7 C

448 W/m

0.00 mm

09:10

10.2 C

1010.8 hpa

71 %

14.5 km/h aus 117

22.5 km/h aus SSW

5.1 C

7.7 C

7.9 C

9.9 C

463 W/m

0.00 mm

09:15

10.3 C

1010.9 hpa

69 %

19.3 km/h aus 117

32.2 km/h aus S

4.9 C

6.9 C

7.2 C

10.1 C

484 W/m

0.00 mm

09:20

10.4 C

1010.9 hpa

69 %

19.3 km/h aus 117

30.6 km/h aus S

4.9 C

7.0 C

7.3 C

10.1 C

482 W/m

0.00 mm

09:25

10.3 C

1010.9 hpa

69 %

19.3 km/h aus 117

32.2 km/h aus SSW

4.8 C

6.8 C

7.1 C

10.0 C

511 W/m

0.00 mm

09:30

10.4 C

1011.0 hpa

68 %

16.1 km/h aus 117

30.6 km/h aus S

4.8 C

7.6 C

7.9 C

10.1 C

521 W/m

0.00 mm

09:35

10.6 C

1011.0 hpa

68 %

20.9 km/h aus 117

37.0 km/h aus S

4.9 C

6.9 C

7.2 C

10.2 C

516 W/m

0.00 mm

09:40

10.6 C

1011.0 hpa

65 %

17.7 km/h aus 117

30.6 km/h aus SW

4.3 C

7.4 C

7.8 C

10.2 C

551 W/m

0.00 mm

09:45

10.9 C

1011.0 hpa

68 %

19.3 km/h aus 117

33.8 km/h aus S

5.3 C

7.6 C

7.9 C

10.6 C

572 W/m

0.00 mm

09:50

11.2 C

1011.0 hpa

65 %

19.3 km/h aus 117

33.8 km/h aus S

4.9 C

7.8 C

8.2 C

10.8 C

572 W/m

0.00 mm

09:55

10.9 C

1011.0 hpa

62 %

19.3 km/h aus 117

32.2 km/h aus SSW

3.9 C

7.4 C

7.9 C

10.4 C

587 W/m

0.00 mm

10:00

10.9 C

1011.0 hpa

62 %

19.3 km/h aus 117

33.8 km/h aus SSW

3.9 C

7.4 C

7.9 C

10.4 C

606 W/m

0.00 mm

10:05

11.1 C

1011.0 hpa

61 %

22.5 km/h aus 116

33.8 km/h aus SW

3.9 C

7.1 C

7.7 C

10.6 C

632 W/m

0.00 mm

10:10

11.4 C

1011.0 hpa

61 %

17.7 km/h aus 116

33.8 km/h aus SSW

4.1 C

8.2 C

8.7 C

10.8 C

637 W/m

0.00 mm

10:15

11.3 C

1011.0 hpa

60 %

20.9 km/h aus 117

33.8 km/h aus SW

3.8 C

7.6 C

8.1 C

10.8 C

677 W/m

0.00 mm

10:20

11.5 C

1011.0 hpa

56 %

27.4 km/h aus 116

46.7 km/h aus S

3.0 C

6.9 C

7.6 C

10.8 C

698 W/m

0.00 mm

10:25

11.4 C

1011.0 hpa

54 %

24.1 km/h aus 117

43.5 km/h aus SSW

2.5 C

7.1 C

7.9 C

10.7 C

690 W/m

0.00 mm

10:30

11.4 C

1011.2 hpa

56 %

24.1 km/h aus 117

40.2 km/h aus SSW

3.0 C

7.2 C

7.9 C

10.7 C

670 W/m

0.00 mm

10:35

11.3 C

1011.2 hpa

52 %

25.7 km/h aus 118

38.6 km/h aus SSW

1.8 C

6.8 C

7.6 C

10.6 C

685 W/m

0.00 mm

10:40

11.5 C

1011.2 hpa

48 %

29.0 km/h aus 117

45.1 km/h aus SW

0.9 C

6.6 C

7.4 C

10.6 C

695 W/m

0.00 mm

10:45

11.7 C

1011.2 hpa

47 %

24.1 km/h aus 117

41.8 km/h aus SSW

0.7 C

7.2 C

8.1 C

10.7 C

704 W/m

0.00 mm

10:50

11.8 C

1011.2 hpa

48 %

22.5 km/h aus 117

38.6 km/h aus SSW

1.2 C

7.6 C

8.5 C

10.9 C

707 W/m

0.00 mm

10:55

12.1 C

1011.2 hpa

48 %

19.3 km/h aus 117

33.8 km/h aus SSW

1.4 C

8.2 C

9.2 C

11.1 C

724 W/m

0.00 mm

11:00

12.3 C

1011.2 hpa

44 %

19.3 km/h aus 117

30.6 km/h aus SW

0.4 C

8.3 C

9.5 C

11.2 C

877 W/m

0.00 mm

11:05

12.3 C

1011.2 hpa

43 %

20.9 km/h aus 117

30.6 km/h aus SSW

0.1 C

8.1 C

9.2 C

11.2 C

520 W/m

0.00 mm

11:10

12.2 C

1011.2 hpa

45 %

24.1 km/h aus 117

37.0 km/h aus S

0.6 C

7.6 C

8.7 C

11.1 C

446 W/m

0.00 mm

11:15

12.2 C

1011.3 hpa

45 %

24.1 km/h aus 117

40.2 km/h aus SSE

0.6 C

7.6 C

8.7 C

11.1 C

338 W/m

0.00 mm

11:20

11.8 C

1011.3 hpa

45 %

27.4 km/h aus 117

40.2 km/h aus S

0.3 C

6.9 C

7.9 C

10.8 C

324 W/m

0.00 mm

11:25

11.8 C

1011.3 hpa

47 %

20.9 km/h aus 117

32.2 km/h aus S

0.9 C

7.7 C

8.7 C

10.8 C

323 W/m

0.00 mm

11:30

12.0 C

1011.3 hpa

46 %

19.3 km/h aus 117

27.4 km/h aus SSW

0.7 C

8.1 C

9.1 C

10.9 C

414 W/m

0.00 mm

11:35

12.1 C

1011.3 hpa

44 %

25.7 km/h aus 118

49.9 km/h aus SSW

0.2 C

7.3 C

8.4 C

11.0 C

480 W/m

0.00 mm

11:40

11.9 C

1011.3 hpa

44 %

24.1 km/h aus 117

41.8 km/h aus SW

0.1 C

7.4 C

8.4 C

10.9 C

290 W/m

0.00 mm

11:45

12.2 C

1011.4 hpa

44 %

24.1 km/h aus 117

41.8 km/h aus SSW

0.3 C

7.6 C

8.7 C

11.1 C

419 W/m

0.00 mm

11:50

12.1 C

1011.4 hpa

43 %

25.7 km/h aus 116

38.6 km/h aus SW

-0.2 C

7.3 C

8.4 C

10.9 C

394 W/m

0.00 mm

11:55

12.1 C

1011.4 hpa

43 %

25.7 km/h aus 115

46.7 km/h aus SSE

-0.1 C

7.3 C

8.4 C

11.0 C

362 W/m

0.00 mm

12:00

12.2 C

1011.7 hpa

44 %

17.7 km/h aus 116

30.6 km/h aus WSW

0.3 C

8.6 C

9.7 C

11.1 C

341 W/m

0.00 mm

12:05

12.1 C

1011.7 hpa

44 %

20.9 km/h aus 117

37.0 km/h aus SSW

0.2 C

7.8 C

8.9 C

10.9 C

356 W/m

0.00 mm

12:10

12.2 C

1011.7 hpa

44 %

24.1 km/h aus 117

40.2 km/h aus WSW

0.3 C

7.6 C

8.7 C

11.1 C

403 W/m

0.00 mm

12:15

12.2 C

1011.9 hpa

44 %

20.9 km/h aus 116

38.6 km/h aus SSW

0.3 C

8.0 C

9.1 C

11.1 C

435 W/m

0.00 mm

12:20

12.3 C

1011.9 hpa

45 %

19.3 km/h aus 117

30.6 km/h aus SSW

0.7 C

8.4 C

9.5 C

11.2 C

431 W/m

0.00 mm

12:25

12.3 C

1011.9 hpa

44 %

24.1 km/h aus 117

41.8 km/h aus SW

0.4 C

7.6 C

8.8 C

11.1 C

441 W/m

0.00 mm

12:30

12.2 C

1012.1 hpa

45 %

24.1 km/h aus 117

43.5 km/h aus SSW

0.6 C

7.6 C

8.7 C

11.1 C

439 W/m

0.00 mm

12:35

12.1 C

1012.1 hpa

47 %

25.7 km/h aus 116

43.5 km/h aus S

1.1 C

7.4 C

8.4 C

11.1 C

445 W/m

0.00 mm

12:40

12.1 C

1012.1 hpa

47 %

24.1 km/h aus 118

35.4 km/h aus SSW

1.1 C

7.6 C

8.6 C

11.1 C

440 W/m

0.00 mm

12:45

12.2 C

1011.9 hpa

48 %

20.9 km/h aus 117

40.2 km/h aus SSW

1.5 C

8.1 C

9.1 C

11.2 C

444 W/m

0.00 mm

12:50

12.3 C

1011.9 hpa

47 %

22.5 km/h aus 117

38.6 km/h aus WSW

1.3 C

7.9 C

9.0 C

11.2 C

452 W/m

0.00 mm

12:55

12.2 C

1011.9 hpa

48 %

25.7 km/h aus 116

40.2 km/h aus SSW

1.5 C

7.6 C

8.6 C

11.2 C

479 W/m

0.00 mm

13:00

12.2 C

1012.3 hpa

49 %

24.1 km/h aus 117

38.6 km/h aus WSW

1.8 C

7.7 C

8.7 C

11.2 C

481 W/m

0.00 mm

13:05

12.3 C

1012.3 hpa

49 %

24.1 km/h aus 116

43.5 km/h aus S

1.9 C

7.8 C

8.8 C

11.3 C

514 W/m

0.00 mm

13:10

12.2 C

1012.3 hpa

49 %

24.1 km/h aus 117

38.6 km/h aus SSW

1.8 C

7.7 C

8.7 C

11.2 C

464 W/m

0.00 mm

13:15

12.2 C

1012.4 hpa

49 %

17.7 km/h aus 115

32.2 km/h aus WSW

1.8 C

8.7 C

9.6 C

11.2 C

482 W/m

0.00 mm

13:20

12.4 C

1012.4 hpa

48 %

19.3 km/h aus 116

35.4 km/h aus SW

1.7 C

8.6 C

9.6 C

11.4 C

504 W/m

0.00 mm

13:25

12.2 C

1012.4 hpa

49 %

19.3 km/h aus 117

35.4 km/h aus WSW

1.8 C

8.4 C

9.3 C

11.2 C

433 W/m

0.00 mm

13:30

12.2 C

1012.7 hpa

49 %

25.7 km/h aus 117

35.4 km/h aus WSW

1.8 C

7.6 C

8.5 C

11.2 C

411 W/m

0.00 mm

13:35

12.2 C

1012.7 hpa

50 %

19.3 km/h aus 117

33.8 km/h aus SW

2.1 C

8.4 C

9.4 C

11.3 C

397 W/m

0.00 mm

13:40

12.3 C

1012.7 hpa

51 %

20.9 km/h aus 117

33.8 km/h aus W

2.5 C

8.3 C

9.2 C

11.4 C

467 W/m

0.00 mm

13:45

12.6 C

1012.9 hpa

52 %

17.7 km/h aus 118

30.6 km/h aus W

3.0 C

9.2 C

10.1 C

11.7 C

520 W/m

0.00 mm

13:50

12.6 C

1012.9 hpa

52 %

20.9 km/h aus 117

40.2 km/h aus W

3.0 C

8.6 C

9.5 C

11.7 C

499 W/m

0.00 mm

13:55

12.5 C

1012.9 hpa

51 %

22.5 km/h aus 117

38.6 km/h aus WSW

2.6 C

8.3 C

9.3 C

11.6 C

464 W/m

0.00 mm

14:00

12.2 C

1012.9 hpa

53 %

25.7 km/h aus 116

38.6 km/h aus SW

2.9 C

7.7 C

8.5 C

11.3 C

518 W/m

0.00 mm

14:05

12.2 C

1012.9 hpa

54 %

22.5 km/h aus 117

46.7 km/h aus SSW

3.2 C

8.1 C

8.9 C

11.4 C

534 W/m

0.00 mm

14:10

12.2 C

1012.9 hpa

54 %

19.3 km/h aus 117

35.4 km/h aus SW

3.2 C

8.6 C

9.4 C

11.4 C

444 W/m

0.00 mm

14:15

12.3 C

1013.1 hpa

55 %

19.3 km/h aus 111

29.0 km/h aus WSW

3.5 C

8.7 C

9.5 C

11.6 C

379 W/m

0.00 mm

14:20

12.3 C

1013.1 hpa

55 %

22.5 km/h aus 115

35.4 km/h aus SW

3.5 C

8.2 C

9.0 C

11.5 C

441 W/m

0.00 mm

14:25

12.3 C

1013.1 hpa

55 %

22.5 km/h aus 117

32.2 km/h aus W

3.5 C

8.2 C

9.0 C

11.5 C

497 W/m

0.00 mm

14:30

12.2 C

1013.3 hpa

56 %

17.7 km/h aus 117

30.6 km/h aus W

3.7 C

8.9 C

9.7 C

11.4 C

396 W/m

0.00 mm

14:35

12.2 C

1013.3 hpa

57 %

16.1 km/h aus 116

27.4 km/h aus SW

3.9 C

9.3 C

10.0 C

11.5 C

472 W/m

0.00 mm

14:40

12.1 C

1013.3 hpa

56 %

19.3 km/h aus 117

30.6 km/h aus SSW

3.6 C

8.5 C

9.3 C

11.3 C

417 W/m

0.00 mm

14:45

12.1 C

1013.4 hpa

56 %

16.1 km/h aus 117

25.7 km/h aus WSW

3.5 C

9.0 C

9.8 C

11.3 C

380 W/m

0.00 mm

14:50

12.2 C

1013.4 hpa

58 %

14.5 km/h aus 117

24.1 km/h aus WSW

4.2 C

9.6 C

10.3 C

11.5 C

321 W/m

0.00 mm

14:55

12.5 C

1013.4 hpa

58 %

14.5 km/h aus 117

25.7 km/h aus W

4.5 C

9.9 C

10.7 C

11.8 C

383 W/m

0.00 mm

15:00

12.3 C

1013.4 hpa

55 %

16.1 km/h aus 116

25.7 km/h aus WSW

3.5 C

9.3 C

10.1 C

11.6 C

352 W/m

0.00 mm

15:05

12.4 C

1013.4 hpa

56 %

12.9 km/h aus 117

24.1 km/h aus SSE

3.8 C

10.2 C

10.9 C

11.6 C

262 W/m

0.00 mm

15:10

12.2 C

1013.4 hpa

56 %

16.1 km/h aus 117

33.8 km/h aus SW

3.7 C

9.2 C

10.0 C

11.4 C

233 W/m

0.00 mm

15:15

12.1 C

1013.4 hpa

58 %

14.5 km/h aus 117

25.7 km/h aus SW

4.1 C

9.5 C

10.2 C

11.4 C

360 W/m

0.00 mm

15:20

12.1 C

1013.4 hpa

58 %

16.1 km/h aus 116

29.0 km/h aus WSW

4.1 C

9.2 C

9.9 C

11.4 C

208 W/m

0.00 mm

15:25

12.2 C

1013.4 hpa

59 %

14.5 km/h aus 111

27.4 km/h aus W

4.4 C

9.6 C

10.3 C

11.5 C

247 W/m

0.00 mm

15:30

12.3 C

1013.5 hpa

59 %

14.5 km/h aus 61

25.7 km/h aus W

4.5 C

9.7 C

10.4 C

11.6 C

253 W/m

0.00 mm

15:35

12.2 C

1013.5 hpa

58 %

20.9 km/h aus 48

35.4 km/h aus SW

4.2 C

8.4 C

9.1 C

11.5 C

220 W/m

0.00 mm

15:40

11.9 C

1013.5 hpa

59 %

20.9 km/h aus 86

41.8 km/h aus WSW

4.2 C

8.1 C

8.8 C

11.3 C

245 W/m

0.00 mm

15:45

11.9 C

1014.0 hpa

60 %

20.9 km/h aus 115

33.8 km/h aus SW

4.4 C

8.2 C

8.8 C

11.3 C

278 W/m

0.00 mm

15:50

11.9 C

1014.0 hpa

60 %

20.9 km/h aus 115

33.8 km/h aus W

4.4 C

8.2 C

8.8 C

11.3 C

317 W/m

0.00 mm

15:55

11.9 C

1014.0 hpa

60 %

19.3 km/h aus 116

32.2 km/h aus SW

4.4 C

8.4 C

9.1 C

11.3 C

385 W/m

0.00 mm

16:00

12.3 C

1014.1 hpa

60 %

17.7 km/h aus 116

30.6 km/h aus SW

4.8 C

9.1 C

9.8 C

11.7 C

468 W/m

0.00 mm

16:05

12.3 C

1014.1 hpa

60 %

16.1 km/h aus 113

30.6 km/h aus SSW

4.8 C

9.4 C

10.1 C

11.7 C

380 W/m

0.00 mm

16:10

12.3 C

1014.1 hpa

60 %

14.5 km/h aus 116

29.0 km/h aus SSW

4.8 C

9.8 C

10.4 C

11.7 C

282 W/m

0.00 mm

16:15

12.0 C

1014.4 hpa

61 %

19.3 km/h aus 116

33.8 km/h aus S

4.7 C

8.5 C

9.1 C

11.4 C

166 W/m

0.00 mm

16:20

11.8 C

1014.4 hpa

61 %

17.7 km/h aus 117

35.4 km/h aus SW

4.5 C

8.6 C

9.2 C

11.2 C

169 W/m

0.00 mm

16:25

11.8 C

1014.4 hpa

61 %

19.3 km/h aus 117

33.8 km/h aus SW

4.5 C

8.2 C

8.8 C

11.2 C

264 W/m

0.00 mm

16:30

11.8 C

1014.5 hpa

62 %

19.3 km/h aus 115

33.8 km/h aus SSW

4.7 C

8.3 C

8.8 C

11.2 C

247 W/m

0.00 mm

16:35

11.9 C

1014.5 hpa

63 %

17.7 km/h aus 117

30.6 km/h aus WSW

5.1 C

8.7 C

9.3 C

11.3 C

309 W/m

0.00 mm

16:40

11.8 C

1014.5 hpa

62 %

19.3 km/h aus 113

35.4 km/h aus SSW

4.7 C

8.3 C

8.8 C

11.2 C

172 W/m

0.00 mm

16:45

11.7 C

1014.5 hpa

63 %

19.3 km/h aus 116

30.6 km/h aus SSW

4.9 C

8.2 C

8.7 C

11.1 C

136 W/m

0.00 mm

16:50

11.4 C

1014.5 hpa

67 %

19.3 km/h aus 114

32.2 km/h aus SW

5.5 C

8.1 C

8.5 C

11.0 C

217 W/m

0.00 mm

16:55

11.3 C

1014.5 hpa

68 %

17.7 km/h aus 95

25.7 km/h aus WSW

5.6 C

8.2 C

8.6 C

10.9 C

217 W/m

0.00 mm

17:00

11.2 C

1014.7 hpa

69 %

12.9 km/h aus 101

22.5 km/h aus SSW

5.7 C

9.1 C

9.5 C

10.8 C

122 W/m

0.00 mm

17:05

11.1 C

1014.7 hpa

69 %

14.5 km/h aus 104

25.7 km/h aus WSW

5.6 C

8.6 C

8.9 C

10.7 C

89 W/m

0.00 mm

17:10

10.6 C

1014.7 hpa

73 %

14.5 km/h aus 107

25.7 km/h aus WNW

5.9 C

8.2 C

8.4 C

10.3 C

122 W/m

0.00 mm

17:15

10.3 C

1015.0 hpa

74 %

9.7 km/h aus 112

19.3 km/h aus WNW

5.9 C

8.9 C

9.1 C

10.2 C

75 W/m

0.00 mm

17:20

10.2 C

1015.0 hpa

75 %

14.5 km/h aus 117

27.4 km/h aus WNW

5.9 C

7.8 C

7.9 C

10.1 C

50 W/m

0.00 mm

17:25

9.8 C

1015.0 hpa

77 %

11.3 km/h aus 115

25.7 km/h aus WNW

6.0 C

8.2 C

8.2 C

9.8 C

112 W/m

0.00 mm

17:30

9.8 C

1015.3 hpa

80 %

9.7 km/h aus 115

16.1 km/h aus W

6.5 C

8.5 C

8.5 C

9.8 C

232 W/m

0.00 mm

17:35

9.8 C

1015.3 hpa

79 %

12.9 km/h aus 117

20.9 km/h aus W

6.4 C

7.8 C

7.8 C

9.8 C

237 W/m

0.00 mm

17:40

10.3 C

1015.3 hpa

80 %

9.7 km/h aus 114

17.7 km/h aus WSW

7.0 C

9.1 C

9.1 C

10.3 C

290 W/m

0.00 mm

17:45

10.4 C

1015.2 hpa

77 %

8.0 km/h aus 114

14.5 km/h aus SW

6.6 C

9.4 C

9.6 C

10.3 C

201 W/m

0.00 mm

17:50

10.4 C

1015.2 hpa

77 %

8.0 km/h aus 111

14.5 km/h aus SW

6.5 C

9.3 C

9.4 C

10.3 C

195 W/m

0.00 mm

17:55

10.5 C

1015.2 hpa

75 %

9.7 km/h aus 107

17.7 km/h aus SW

6.3 C

9.2 C

9.3 C

10.3 C

280 W/m

0.00 mm

18:00

10.6 C

1015.1 hpa

74 %

8.0 km/h aus 111

17.7 km/h aus S

6.1 C

9.5 C

9.7 C

10.4 C

102 W/m

0.00 mm

18:05

10.6 C

1015.1 hpa

73 %

9.7 km/h aus 112

19.3 km/h aus SW

5.9 C

9.2 C

9.4 C

10.3 C

110 W/m

0.00 mm

18:10

10.6 C

1015.1 hpa

72 %

8.0 km/h aus 113

19.3 km/h aus WSW

5.8 C

9.5 C

9.7 C

10.4 C

115 W/m

0.00 mm

18:15

10.7 C

1015.1 hpa

71 %

14.5 km/h aus 110

25.7 km/h aus SW

5.6 C

8.2 C

8.5 C

10.4 C

108 W/m

0.00 mm

18:20

10.7 C

1015.1 hpa

71 %

8.0 km/h aus 115

16.1 km/h aus SSW

5.7 C

9.6 C

9.9 C

10.4 C

94 W/m

0.00 mm

18:25

10.7 C

1015.1 hpa

70 %

11.3 km/h aus 112

19.3 km/h aus WSW

5.5 C

9.1 C

9.3 C

10.4 C

91 W/m

0.00 mm

18:30

10.7 C

1015.2 hpa

71 %

12.9 km/h aus 109

20.9 km/h aus S

5.7 C

8.7 C

8.9 C

10.4 C

94 W/m

0.00 mm

18:35

10.7 C

1015.2 hpa

70 %

11.3 km/h aus 114

20.9 km/h aus SW

5.4 C

8.9 C

9.2 C

10.4 C

91 W/m

0.00 mm

18:40

10.6 C

1015.2 hpa

68 %

14.5 km/h aus 104

27.4 km/h aus SSW

4.9 C

8.1 C

8.4 C

10.3 C

81 W/m

0.00 mm

18:45

10.6 C

1015.2 hpa

67 %

14.5 km/h aus 110

27.4 km/h aus SW

4.7 C

8.1 C

8.4 C

10.2 C

69 W/m

0.00 mm

18:50

10.6 C

1015.2 hpa

66 %

14.5 km/h aus 115

22.5 km/h aus SSW

4.5 C

8.0 C

8.4 C

10.2 C

65 W/m

0.00 mm

18:55

10.6 C

1015.2 hpa

67 %

9.7 km/h aus 116

19.3 km/h aus SW

4.7 C

9.1 C

9.4 C

10.2 C

57 W/m

0.00 mm

19:00

10.6 C

1015.4 hpa

66 %

14.5 km/h aus 106

29.0 km/h aus S

4.5 C

8.0 C

8.4 C

10.2 C

47 W/m

0.00 mm

19:05

10.6 C

1015.4 hpa

66 %

12.9 km/h aus 116

22.5 km/h aus SSW

4.5 C

8.4 C

8.8 C

10.2 C

45 W/m

0.00 mm

19:10

10.6 C

1015.4 hpa

66 %

12.9 km/h aus 117

20.9 km/h aus SSW

4.5 C

8.3 C

8.7 C

10.2 C

45 W/m

0.00 mm

19:15

10.6 C

1015.5 hpa

66 %

12.9 km/h aus 115

20.9 km/h aus SW

4.5 C

8.3 C

8.7 C

10.2 C

47 W/m

0.00 mm

19:20

10.6 C

1015.5 hpa

66 %

11.3 km/h aus 116

22.5 km/h aus SSW

4.5 C

8.7 C

9.1 C

10.2 C

47 W/m

0.00 mm

19:25

10.6 C

1015.5 hpa

66 %

11.3 km/h aus 117

19.3 km/h aus S

4.5 C

8.7 C

9.1 C

10.2 C

50 W/m

0.00 mm

19:30

10.6 C

1015.5 hpa

66 %

12.9 km/h aus 114

20.9 km/h aus S

4.5 C

8.3 C

8.7 C

10.2 C

49 W/m

0.00 mm

19:35

10.6 C

1015.5 hpa

66 %

8.0 km/h aus 113

16.1 km/h aus SSW

4.5 C

9.3 C

9.7 C

10.2 C

57 W/m

0.00 mm

19:40

10.6 C

1015.5 hpa

66 %

8.0 km/h aus 102

19.3 km/h aus SSW

4.5 C

9.3 C

9.7 C

10.2 C

82 W/m

0.00 mm

19:45

10.6 C

1015.5 hpa

65 %

12.9 km/h aus 116

25.7 km/h aus SSW

4.3 C

8.4 C

8.8 C

10.2 C

88 W/m

0.00 mm

19:50

10.6 C

1015.5 hpa

65 %

12.9 km/h aus 114

22.5 km/h aus SSW

4.3 C

8.4 C

8.8 C

10.2 C

69 W/m

0.00 mm

19:55

10.6 C

1015.5 hpa

65 %

12.9 km/h aus 115

22.5 km/h aus SSW

4.2 C

8.3 C

8.7 C

10.2 C

48 W/m

0.00 mm

20:00

10.5 C

1015.7 hpa

65 %

16.1 km/h aus 116

27.4 km/h aus SSW

4.2 C

7.6 C

8.0 C

10.1 C

35 W/m

0.00 mm

20:05

10.4 C

1015.7 hpa

65 %

12.9 km/h aus 114

20.9 km/h aus SSW

4.1 C

8.2 C

8.6 C

10.1 C

28 W/m

0.00 mm

20:10

10.4 C

1015.7 hpa

64 %

11.3 km/h aus 117

20.9 km/h aus SSW

3.9 C

8.5 C

8.9 C

10.0 C

25 W/m

0.00 mm

20:15

10.3 C

1016.0 hpa

64 %

8.0 km/h aus 115

16.1 km/h aus SSW

3.8 C

9.0 C

9.4 C

9.9 C

23 W/m

0.00 mm

20:20

10.3 C

1016.0 hpa

64 %

6.4 km/h aus 117

14.5 km/h aus SW

3.8 C

9.3 C

9.7 C

9.9 C

18 W/m

0.00 mm

20:25

10.2 C

1016.0 hpa

64 %

8.0 km/h aus 116

14.5 km/h aus SW

3.7 C

8.9 C

9.3 C

9.8 C

13 W/m

0.00 mm

20:30

10.1 C

1016.0 hpa

65 %

6.4 km/h aus 116

11.3 km/h aus SW

3.8 C

9.2 C

9.5 C

9.8 C

11 W/m

0.00 mm

20:35

10.1 C

1016.0 hpa

65 %

6.4 km/h aus 117

16.1 km/h aus S

3.8 C

9.1 C

9.4 C

9.7 C

8 W/m

0.00 mm

20:40

9.9 C

1016.0 hpa

65 %

4.8 km/h aus 115

8.0 km/h aus SW

3.7 C

9.4 C

9.8 C

9.6 C

5 W/m

0.00 mm

20:45

9.9 C

1016.0 hpa

65 %

6.4 km/h aus 116

11.3 km/h aus SW

3.6 C

8.9 C

9.3 C

9.6 C

0 W/m

0.00 mm

20:50

9.8 C

1016.0 hpa

66 %

4.8 km/h aus 116

9.7 km/h aus SSW

3.7 C

9.2 C

9.6 C

9.4 C

0 W/m

0.00 mm

20:55

9.7 C

1016.0 hpa

66 %

4.8 km/h aus 116

9.7 km/h aus SSW

3.7 C

9.2 C

9.5 C

9.4 C

0 W/m

0.00 mm

21:00

9.6 C

1016.3 hpa

66 %

4.8 km/h aus 114

9.7 km/h aus SSW

3.6 C

9.1 C

9.4 C

9.3 C

0 W/m

0.00 mm

21:05

9.5 C

1016.3 hpa

67 %

4.8 km/h aus 116

9.7 km/h aus SSW

3.7 C

8.9 C

9.2 C

9.2 C

0 W/m

0.00 mm

21:10

9.3 C

1016.3 hpa

67 %

3.2 km/h aus 115

8.0 km/h aus SSW

3.5 C

9.1 C

9.3 C

9.1 C

0 W/m

0.00 mm

21:15

9.2 C

1016.5 hpa

67 %

4.8 km/h aus 109

8.0 km/h aus SSW

3.4 C

8.6 C

8.9 C

8.9 C

0 W/m

0.00 mm

21:20

9.0 C

1016.5 hpa

68 %

4.8 km/h aus 116

8.0 km/h aus SSW

3.4 C

8.3 C

8.7 C

8.7 C

0 W/m

0.00 mm

21:25

8.8 C

1016.5 hpa

69 %

4.8 km/h aus 114

8.0 km/h aus SSW

3.5 C

8.2 C

8.5 C

8.6 C

0 W/m

0.00 mm

21:30

8.7 C

1016.6 hpa

69 %

3.2 km/h aus 117

6.4 km/h aus SSW

3.3 C

8.4 C

8.7 C

8.4 C

0 W/m

0.00 mm

21:35

8.6 C

1016.6 hpa

70 %

3.2 km/h aus 115

6.4 km/h aus SSW

3.4 C

8.3 C

8.6 C

8.3 C

0 W/m

0.00 mm

21:40

8.4 C

1016.6 hpa

70 %

3.2 km/h aus 115

8.0 km/h aus SSW

3.2 C

8.1 C

8.4 C

8.1 C

0 W/m

0.00 mm

21:45

8.2 C

1016.9 hpa

71 %

3.2 km/h aus 114

6.4 km/h aus SSW

3.3 C

7.9 C

8.2 C

7.9 C

0 W/m

0.00 mm

21:50

8.1 C

1016.9 hpa

71 %

4.8 km/h aus 115

6.4 km/h aus SSW

3.2 C

7.4 C

7.7 C

7.8 C

0 W/m

0.00 mm

21:55

7.9 C

1016.9 hpa

71 %

4.8 km/h aus 114

6.4 km/h aus SSW

3.0 C

7.2 C

7.5 C

7.7 C

0 W/m

0.00 mm

22:00

7.8 C

1017.0 hpa

72 %

4.8 km/h aus 116

11.3 km/h aus SSW

3.0 C

7.1 C

7.3 C

7.5 C

0 W/m

0.00 mm

22:05

7.7 C

1017.0 hpa

72 %

3.2 km/h aus 115

9.7 km/h aus SSW

2.9 C

7.4 C

7.7 C

7.4 C

0 W/m

0.00 mm

22:10

7.4 C

1017.0 hpa

72 %

1.6 km/h aus 117

3.2 km/h aus SSW

2.7 C

7.2 C

7.4 C

7.2 C

0 W/m

0.00 mm

22:15

7.3 C

1017.1 hpa

73 %

3.2 km/h aus 116

9.7 km/h aus SSW

2.8 C

7.1 C

7.3 C

7.1 C

0 W/m

0.00 mm

22:20

7.2 C

1017.1 hpa

73 %

3.2 km/h aus 116

8.0 km/h aus SW

2.7 C

7.0 C

7.2 C

7.0 C

0 W/m

0.00 mm

22:25

7.1 C

1017.1 hpa

75 %

4.8 km/h aus 117

9.7 km/h aus SW

3.0 C

6.3 C

6.6 C

6.9 C

0 W/m

0.00 mm

22:30

7.1 C

1017.2 hpa

75 %

6.4 km/h aus 116

11.3 km/h aus SSW

2.9 C

5.7 C

5.9 C

6.8 C

0 W/m

0.00 mm

22:35

7.1 C

1017.2 hpa

76 %

6.4 km/h aus 116

11.3 km/h aus SSW

3.1 C

5.7 C

5.9 C

6.8 C

0 W/m

0.00 mm

22:40

7.1 C

1017.2 hpa

77 %

6.4 km/h aus 115

11.3 km/h aus S

3.3 C

5.9 C

6.1 C

6.9 C

0 W/m

0.00 mm

22:45

7.2 C

1017.2 hpa

77 %

4.8 km/h aus 115

11.3 km/h aus SSW

3.5 C

6.5 C

6.7 C

7.1 C

0 W/m

0.00 mm

22:50

7.2 C

1017.2 hpa

77 %

6.4 km/h aus 116

11.3 km/h aus SSW

3.5 C

6.0 C

6.2 C

7.1 C

0 W/m

0.00 mm

22:55

7.3 C

1017.2 hpa

77 %

6.4 km/h aus 116

11.3 km/h aus SSW

3.5 C

6.1 C

6.2 C

7.1 C

0 W/m

0.00 mm

23:00

7.3 C

1017.3 hpa

77 %

4.8 km/h aus 117

11.3 km/h aus SSW

3.5 C

6.6 C

6.7 C

7.1 C

0 W/m

0.00 mm

23:05

7.3 C

1017.3 hpa

77 %

4.8 km/h aus 114

8.0 km/h aus S

3.6 C

6.6 C

6.8 C

7.2 C

0 W/m

0.00 mm

23:10

7.3 C

1017.3 hpa

77 %

4.8 km/h aus 118

9.7 km/h aus S

3.6 C

6.6 C

6.8 C

7.2 C

0 W/m

0.00 mm

23:15

7.3 C

1017.5 hpa

77 %

3.2 km/h aus 117

8.0 km/h aus S

3.5 C

7.1 C

7.3 C

7.1 C

0 W/m

0.00 mm

23:20

7.2 C

1017.5 hpa

77 %

3.2 km/h aus 116

8.0 km/h aus S

3.5 C

7.1 C

7.2 C

7.1 C

0 W/m

0.00 mm

23:25

7.2 C

1017.5 hpa

77 %

3.2 km/h aus 117

8.0 km/h aus S

3.5 C

7.1 C

7.2 C

7.1 C

0 W/m

0.00 mm

23:30

7.2 C

1017.6 hpa

77 %

4.8 km/h aus 116

8.0 km/h aus SW

3.4 C

6.4 C

6.6 C

7.0 C

0 W/m

0.00 mm

23:35

7.2 C

1017.6 hpa

78 %

3.2 km/h aus 117

9.7 km/h aus SW

3.6 C

7.0 C

7.2 C

7.0 C

0 W/m

0.00 mm

23:40

7.2 C

1017.6 hpa

78 %

1.6 km/h aus 117

4.8 km/h aus SW

3.6 C

7.0 C

7.2 C

7.0 C

0 W/m

0.00 mm

23:45

7.2 C

1017.7 hpa

78 %

4.8 km/h aus 116

11.3 km/h aus WNW

3.6 C

6.4 C

6.6 C

7.0 C

0 W/m

0.00 mm

23:50

7.2 C

1017.7 hpa

78 %

4.8 km/h aus 116

11.3 km/h aus WNW

3.6 C

6.4 C

6.6 C

7.0 C

0 W/m

0.00 mm

23:55

7.2 C

1017.7 hpa

79 %

1.6 km/h aus 115

6.4 km/h aus WNW

3.8 C

7.1 C

7.2 C

7.1 C

0 W/m

0.00 mm